ALTO-WX Weather Reports


time (UTC)temp
C
wind
direction
speed
KPH
gust
KPH
rain 1hr
cm
rain 24hr
cm
rain mn
cm
humidity
%
barometer
mb
20260509043050 7 173 11.3 0.0 0.00 0.00 0.00 47 975.6
20260509041533 8 171 12.9 0.0 0.00 0.00 0.00 47 975.6
20260509040108 8 176 11.3 0.0 0.00 0.00 0.00 47 975.6
20260509034533 8 182 11.3 0.0 0.00 0.00 0.00 40 976.3
20260509033049 8 171 9.7 0.0 0.00 0.00 0.00 38 977.0
20260509031533 9 170 9.7 0.0 0.00 0.00 0.00 38 977.0
20260509030105 9 172 9.7 0.0 0.00 0.00 0.00 38 977.0
20260509024533 10 178 9.7 0.0 0.00 0.00 0.00 30 977.6
20260509023051 10 188 9.7 0.0 0.00 0.00 0.00 29 977.4
20260509021533 10 200 9.7 0.0 0.00 0.00 0.00 29 977.3
20260509014533 11 220 8.0 0.0 0.00 0.00 0.00 31 977.3
20260509013048 11 236 6.4 0.0 0.00 0.00 0.00 31 977.3
20260509011533 11 250 8.0 0.0 0.00 0.00 0.00 31 977.3
20260509010058 11 255 8.0 0.0 0.00 0.00 0.00 31 977.3
20260509004532 12 252 8.0 0.0 0.00 0.00 0.00 25 977.1
20260509003050 12 253 8.0 0.0 0.00 0.00 0.00 26 978.4
20260509001532 13 258 8.0 0.0 0.00 0.00 0.00 26 978.4
20260509000107 14 262 9.7 0.0 0.00 0.00 0.00 26 978.4
20260508234533 15 261 12.9 0.0 0.00 0.00 0.00 22 977.7
20260508233052 15 263 14.5 0.0 0.00 0.00 0.00 22 977.9
20260508231535 15 262 16.1 0.0 0.00 0.00 0.00 22 977.9
20260508230058 15 266 16.1 0.0 0.00 0.00 0.00 22 977.9
20260508224534 15 265 16.1 0.0 0.00 0.00 0.00 22 978.1
20260508223053 15 266 19.3 0.0 0.00 0.00 0.00 21 979.0
20260508221535 16 265 19.3 0.0 0.00 0.00 0.00 21 979.0
20260508220059 16 263 19.3 0.0 0.00 0.00 0.00 21 979.0
20260508214535 16 262 19.3 0.0 0.00 0.00 0.00 21 979.5
20260508213052 16 260 19.3 0.0 0.00 0.00 0.00 22 979.0
20260508211535 16 254 19.3 0.0 0.00 0.00 0.00 22 979.0
20260508210103 16 255 19.3 0.0 0.00 0.00 0.00 22 979.0
20260508204535 16 251 19.3 0.0 0.00 0.00 0.00 24 979.0
20260508203053 16 245 19.3 0.0 0.00 0.00 0.00 22 978.9
20260508201535 16 245 17.7 0.0 0.00 0.00 0.00 22 979.0
20260508200100 16 244 16.1 0.0 0.00 0.00 0.00 22 979.0
20260508194535 16 244 16.1 0.0 0.00 0.00 0.00 21 979.2
20260508193050 16 242 16.1 0.0 0.00 0.00 0.00 21 979.2
20260508191534 16 252 16.1 0.0 0.00 0.00 0.00 21 979.2
20260508190058 16 251 14.5 0.0 0.00 0.00 0.00 21 979.2
20260508184534 16 246 14.5 0.0 0.00 0.00 0.00 25 979.5
20260508183054 16 240 17.7 0.0 0.00 0.00 0.00 26 979.2
20260508181534 16 241 17.7 0.0 0.00 0.00 0.00 26 979.2
20260508180103 16 243 16.1 0.0 0.00 0.00 0.00 26 979.2
20260508174535 15 241 17.7 0.0 0.00 0.00 0.00 31 980.2
20260508173053 15 245 17.7 0.0 0.00 0.00 0.00 31 980.2
20260508171534 15 244 16.1 0.0 0.00 0.00 0.00 31 980.2
20260508170100 15 249 16.1 0.0 0.00 0.00 0.00 30 980.2
20260508164534 14 248 16.1 0.0 0.00 0.00 0.00 38 980.5
20260508163053 14 240 14.5 0.0 0.00 0.00 0.00 38 980.7
20260508161535 13 233 14.5 0.0 0.00 0.00 0.00 38 980.7
20260508160104 12 226 12.9 0.0 0.00 0.00 0.00 38 980.7
20260508154535 12 217 12.9 0.0 0.00 0.00 0.00 42 981.7
20260508153055 12 203 12.9 0.0 0.00 0.00 0.00 45 980.6
20260508151535 11 198 11.3 0.0 0.00 0.00 0.00 45 980.6
20260508144535 10 196 9.7 0.0 0.00 0.00 0.00 57 980.8
20260508143052 10 198 8.0 0.0 0.00 0.00 0.00 61 981.0
20260508141535 10 197 8.0 0.0 0.00 0.00 0.00 61 981.0
20260508140110 9 195 8.0 0.0 0.00 0.00 0.00 63 980.8
20260508134535 8 193 8.0 0.0 0.00 0.00 0.00 73 980.6
20260508133050 7 194 9.7 0.0 0.00 0.00 0.00 73 980.6
20260508131535 7 194 9.7 0.0 0.00 0.00 0.00 73 980.6
20260508130107 6 186 9.7 0.0 0.00 0.00 0.00 73 980.6
20260508124535 5 182 9.7 0.0 0.00 0.00 0.00 84 980.0
20260508123053 5 192 8.0 0.0 0.00 0.00 0.00 82 980.4
20260508121535 5 183 4.8 0.0 0.00 0.00 0.00 82 980.4
20260508120114 3 175 3.2 0.0 0.00 0.00 0.00 82 980.4
20260508114534 2 171 3.2 0.0 0.00 0.00 0.00 80 979.9
20260508113056 2 172 4.8 0.0 0.00 0.00 0.00 77 980.6
20260508111534 2 146 6.4 0.0 0.00 0.00 0.00 77 980.6
20260508110100 1 139 6.4 0.0 0.00 0.00 0.00 77 980.6
20260508104537 1 130 4.8 0.0 0.00 0.00 0.00 74 979.8
20260508103054 1 113 4.8 0.0 0.00 0.00 0.00 73 980.8
20260508101537 2 119 3.2 0.0 0.00 0.00 0.00 73 980.8
20260508100100 2 121 3.2 0.0 0.00 0.00 0.00 73 980.8
20260508094536 2 119 3.2 0.0 0.00 0.00 0.00 74 980.1
20260508093050 2 126 4.8 0.0 0.00 0.00 0.00 75 980.8
20260508091537 2 170 4.8 0.0 0.00 0.00 0.00 75 980.8
20260508090104 2 166 6.4 0.0 0.00 0.00 0.00 75 980.8
20260508084536 2 164 6.4 0.0 0.00 0.00 0.00 68 980.4
20260508083055 3 186 6.4 0.0 0.00 0.00 0.00 77 980.2
20260508081536 3 183 6.4 0.0 0.00 0.00 0.00 77 980.1
20260508080105 3 180 6.4 0.0 0.00 0.00 0.00 77 980.1
20260508074537 3 180 6.4 0.0 0.00 0.00 0.00 76 980.9
20260508073055 3 182 8.0 0.0 0.00 0.00 0.00 76 980.9
20260508071535 3 202 8.0 0.0 0.00 0.00 0.00 76 980.9
20260508070106 3 197 8.0 0.0 0.00 0.00 0.00 76 980.9
20260508064535 4 180 6.4 0.0 0.00 0.00 0.00 75 980.8
20260508063051 4 193 3.2 0.0 0.00 0.00 0.00 76 981.1
20260508061536 5 176 4.8 0.0 0.00 0.00 0.00 76 981.2
20260508060116 5 163 4.8 0.0 0.00 0.00 0.00 76 981.2
20260508054535 5 143 4.8 0.0 0.00 0.00 0.00 74 981.8
20260508053055 5 128 4.8 0.0 0.00 0.00 0.00 70 981.4
20260508051534 5 95 6.4 0.0 0.00 0.00 0.00 70 981.4
20260508050106 5 79 6.4 0.0 0.00 0.00 0.00 70 981.4
20260508044534 5 68 6.4 0.0 0.00 0.00 0.00 69 981.8